Location: Stuttgart
(48.8069°N, 9.1544°E)
Time: 17:58:46
(UTC+02:00)

ISS - Pass Details

Date: 07 January 2018
Orbit: 401 x 409 km, 51.6° (Epoch: 19 August)

Event Time Altitude Azimuth Distance (km) Brightness Sun altitude
Exits shadow 06:09:05 51° 7° (N) 543 -3.3 -19.9°
Drops below altitude 10° 06:12:22 10° 81° (E) 1,515 0.1 -19.4°
Enters shadow 07:05:58 -74° 283° (WNW) 12,665 3.7 -11.0°
Maximum altitude 07:45:53 79° 204° (SSW) 437 -3.6 -5.0°
